This is the latest recevied weather packets stored in our database for station/object OH5GWF-1. If no packets are shown the sender has not sent any weather packets the latest 10 day(s).
| Time | Temp. | Humidity | Pressure | Rain* | Wind** | Luminosity | Snow |
|---|---|---|---|---|---|---|---|
| 1777702554 | 18.89° C | 50% | 1010.6 hPa | 0 mm | - | - | - |
| 1777702131 | 17.78° C | 50% | 1010.7 hPa | 0 mm | - | - | - |
| 1777701709 | 16.67° C | 53% | 1010.8 hPa | 0 mm | - | - | - |
| 1777701299 | 15.56° C | 53% | 1010.8 hPa | 0 mm | - | - | - |
| 1777700878 | 15° C | 55% | 1010.6 hPa | 0 mm | - | - | - |
| 1777700456 | 14.44° C | 57% | 1010.7 hPa | 0 mm | - | - | - |
| 1777700033 | 14.44° C | 58% | 1010.7 hPa | 0 mm | - | - | - |
| 1777699612 | 13.89° C | 62% | 1010.8 hPa | 0 mm | - | - | - |
| 1777699191 | 12.78° C | 64% | 1011 hPa | 0 mm | - | - | - |
| 1777698770 | 12.22° C | 68% | 1011.1 hPa | 0 mm | - | - | - |
| 1777698359 | 11.11° C | 71% | 1011.1 hPa | 0 mm | - | - | - |
| 1777697937 | 10° C | 72% | 1011.1 hPa | 0 mm | - | - | - |
| 1777697514 | 9.44° C | 73% | 1011.1 hPa | 0 mm | - | - | - |
| 1777697093 | 9.44° C | 74% | 1011.1 hPa | 0 mm | - | - | - |
| 1777696669 | 8.89° C | 75% | 1011.2 hPa | 0 mm | - | - | - |
| 1777696260 | 8.33° C | 76% | 1011.3 hPa | 0 mm | - | - | - |
| 1777695836 | 7.78° C | 77% | 1011.3 hPa | 0 mm | - | - | - |
| 1777695414 | 7.78° C | 78% | 1011.5 hPa | 0 mm | - | - | - |
| 1777694992 | 7.22° C | 79% | 1011.6 hPa | 0 mm | - | - | - |
| 1777694570 | 6.11° C | 81% | 1011.7 hPa | 0 mm | - | - | - |
| 1777694161 | 5.56° C | 82% | 1011.7 hPa | 0 mm | - | - | - |
| 1777693737 | 5° C | 83% | 1011.8 hPa | 0 mm | - | - | - |
| 1777693316 | 4.44° C | 83% | 1011.6 hPa | 0 mm | - | - | - |
| 1777692894 | 4.44° C | 83% | 1011.8 hPa | 0 mm | - | - | - |
| 1777692472 | 4.44° C | 83% | 1011.9 hPa | 0 mm | - | - | - |
* Rain latest hour (hover to see other rain measurements)
** Current wind speed in m/s (hover to see current wind gust speed)